Date String (YYYY-MM-DD hh:mm:ss) UTC,Instrument flags,Ambient pressure (hPa),Sample flow (lpm),Bypass flow (lpm),Sample temperature (°C),Ambient temperature (°C),ASC tube jacket temperature (°C),LED temperature (°C),Box temperature (°C),Sample RH (%),Span deviation,Mass concentration (μg/m³),Mass concentration (μg/m³),Mass concentration (μg/m³)
DateTimeUTC,F1_M11,P_M11,Q1_M11,Q2_M11,T1_M11,T2_M11,T3_M11,T4_M11,T5_M11,U1_M11,ZSPAN_M11,X0_M11,X2_M11,X1_M11
2022-05-11 19:00:00,,0820.9,5.00,0.00,29.5,28.3,00.0,38.3,31.3,14.4,0000.0,0030.81,0006.88,0003.68
2022-05-11 19:01:00,,0820.8,5.01,0.00,29.5,28.4,00.0,38.3,31.4,14.1,0000.0,0031.46,0006.78,0003.67
2022-05-11 19:02:00,,0820.9,5.00,0.00,29.6,28.6,00.0,38.3,31.4,13.6,0000.0,0030.85,0006.74,0003.67
2022-05-11 19:03:00,,0820.9,5.00,0.00,29.6,28.7,00.0,38.4,31.5,13.5,0000.0,0030.13,0006.69,0003.68
2022-05-11 19:04:00,,0820.9,4.99,0.00,29.7,28.7,00.0,38.4,31.5,14.4,0000.0,0030.48,0006.67,0003.69
2022-05-11 19:05:00,,0820.8,5.01,0.00,29.6,27.5,00.0,38.4,31.2,13.8,0000.0,0029.46,0006.68,0003.71
2022-05-11 19:06:00,,0820.8,5.01,0.00,29.5,25.5,00.0,38.4,30.8,14.0,0000.0,0030.24,0006.58,0003.71
2022-05-11 19:07:00,,0820.8,4.99,0.00,29.4,25.4,00.0,38.4,30.8,14.6,0000.0,0031.61,0006.62,0003.72
2022-05-11 19:08:00,,0820.7,5.00,0.00,29.3,25.9,00.0,38.3,30.9,14.4,0000.0,0032.40,0006.71,0003.72
2022-05-11 19:09:00,,0820.7,5.01,0.00,29.3,26.3,00.0,38.3,30.9,15.4,0000.0,0033.82,0006.66,0003.71
2022-05-11 19:10:00,,0820.7,5.00,0.00,29.3,26.8,00.0,38.2,31.0,15.3,0000.0,0033.39,0006.56,0003.72
2022-05-11 19:11:00,,0820.7,5.01,0.00,29.3,27.2,00.0,38.2,31.0,14.9,0000.0,0030.86,0006.50,0003.71
2022-05-11 19:12:00,,0820.7,5.00,0.00,29.3,27.6,00.0,38.2,31.1,15.0,0000.0,0028.91,0006.59,0003.72
2022-05-11 19:13:00,,0820.7,5.00,0.00,29.4,27.8,00.0,38.2,31.2,15.0,0000.0,0028.43,0006.67,0003.72
2022-05-11 19:14:00,,0820.7,5.00,0.00,29.4,28.1,00.0,38.2,31.2,14.9,0000.0,0027.16,0006.62,0003.72
2022-05-11 19:15:00,,0820.6,5.00,0.00,29.4,28.2,00.0,38.2,31.3,14.9,0000.0,0025.87,0006.62,0003.72
2022-05-11 19:16:00,,0820.6,5.00,0.00,29.5,28.4,00.0,38.3,31.4,14.5,0000.0,0025.03,0006.59,0003.71
2022-05-11 19:17:00,,0820.6,5.00,0.00,29.5,28.5,00.0,38.3,31.4,13.9,0000.0,0024.45,0006.66,0003.70
2022-05-11 19:18:00,,0820.6,5.00,0.00,29.6,28.7,00.0,38.3,31.5,13.9,0000.0,0023.05,0006.60,0003.67
2022-05-11 19:19:00,,0820.5,5.00,0.00,29.6,28.8,00.0,38.3,31.5,13.9,0000.0,0022.19,0006.44,0003.65
2022-05-11 19:20:00,,0820.6,5.01,0.00,29.7,28.9,00.0,38.4,31.6,13.8,0000.0,0022.17,0006.46,0003.65
2022-05-11 19:21:00,,0820.5,5.01,0.00,29.7,28.6,00.0,38.4,31.5,13.9,0000.0,0021.66,0006.49,0003.64
2022-05-11 19:22:00,,0820.5,5.00,0.00,29.6,26.5,00.0,38.4,31.0,14.9,0000.0,0023.40,0006.52,0003.63
2022-05-11 19:23:00,,0820.3,5.00,0.00,29.4,25.3,00.0,38.4,30.8,15.0,0000.0,0024.35,0006.46,0003.62
2022-05-11 19:24:00,,0820.3,4.99,0.00,29.4,25.7,00.0,38.4,30.8,13.8,0000.0,0024.20,0006.41,0003.60
2022-05-11 19:25:00,,0820.3,5.00,0.00,29.3,26.1,00.0,38.3,30.9,13.9,0000.0,0025.51,0006.43,0003.60
2022-05-11 19:26:00,,0820.4,4.99,0.00,29.3,26.6,00.0,38.3,30.9,13.4,0000.0,0026.75,0006.48,0003.59
2022-05-11 19:27:00,,0820.3,5.02,0.00,29.3,27.1,00.0,38.2,31.0,13.3,0000.0,0027.56,0006.48,0003.58
2022-05-11 19:28:00,,0820.4,5.00,0.00,29.3,27.5,00.0,38.2,31.1,14.2,0000.0,0027.04,0006.43,0003.57
2022-05-11 19:29:00,,0820.3,5.00,0.00,29.4,27.8,00.0,38.2,31.2,13.5,0000.0,0027.89,0006.46,0003.58
2022-05-11 19:30:00,,0820.3,5.01,0.00,29.4,28.0,00.0,38.3,31.3,13.0,0000.0,0027.83,0006.47,0003.56
2022-05-11 19:31:00,,0820.4,5.00,0.00,29.5,28.2,00.0,38.3,31.3,13.0,0000.0,0026.66,0006.44,0003.55
2022-05-11 19:32:00,,0820.3,4.99,0.00,29.5,28.4,00.0,38.3,31.4,12.7,0000.0,0026.67,0006.43,0003.53
2022-05-11 19:33:00,,0820.3,5.01,0.00,29.6,28.6,00.0,38.3,31.4,13.9,0000.0,0025.64,0006.42,0003.53
2022-05-11 19:34:00,,0820.3,4.99,0.00,29.6,28.7,00.0,38.3,31.5,13.4,0000.0,0024.84,0006.42,0003.52
2022-05-11 19:35:00,,0820.3,5.00,0.00,29.6,28.8,00.0,38.4,31.6,13.6,0000.0,0025.34,0006.38,0003.51
2022-05-11 19:36:00,,0820.3,5.00,0.00,29.7,28.9,00.0,38.4,31.6,13.3,0000.0,0024.03,0006.26,0003.48
2022-05-11 19:37:00,,0820.3,4.99,0.00,29.7,27.6,00.0,38.4,31.3,12.2,0000.0,0023.52,0006.22,0003.47
2022-05-11 19:38:00,,0820.3,5.01,0.00,29.5,25.6,00.0,38.4,30.9,12.0,0000.0,0024.53,0006.27,0003.46
2022-05-11 19:39:00,,0820.2,5.00,0.00,29.4,25.5,00.0,38.4,30.8,12.9,0000.0,0025.62,0006.24,0003.45
2022-05-11 19:40:00,,0820.3,4.99,0.00,29.3,25.9,00.0,38.3,30.9,12.5,0000.0,0024.74,0006.17,0003.44
2022-05-11 19:41:00,,0820.2,5.01,0.00,29.3,26.4,00.0,38.3,30.9,13.1,0000.0,0025.27,0006.17,0003.45
2022-05-11 19:42:00,,0820.2,4.99,0.00,29.3,26.9,00.0,38.3,31.0,12.9,0000.0,0026.77,0006.10,0003.45
2022-05-11 19:43:00,,0820.2,5.01,0.00,29.3,27.3,00.0,38.3,31.1,11.9,0000.0,0027.96,0006.02,0003.46
2022-05-11 19:44:00,,0820.2,5.01,0.00,29.4,27.7,00.0,38.3,31.2,12.7,0000.0,0027.95,0005.98,0003.44
2022-05-11 19:45:00,,0820.2,4.98,0.00,29.4,27.9,00.0,38.3,31.3,12.8,0000.0,0028.46,0005.91,0003.42
2022-05-11 19:46:00,,0820.2,4.99,0.00,29.5,28.2,00.0,38.3,31.3,12.2,0000.0,0028.13,0005.88,0003.40
2022-05-11 19:47:00,,0820.2,5.01,0.00,29.5,28.4,00.0,38.3,31.4,10.6,0000.0,0028.02,0005.88,0003.38
2022-05-11 19:48:00,,0820.2,5.00,0.00,29.6,28.6,00.0,38.3,31.5,10.6,0000.0,0026.99,0005.74,0003.34
2022-05-11 19:49:00,,0820.1,4.99,0.00,29.6,28.7,00.0,38.3,31.5,11.1,0000.0,0025.93,0005.58,0003.32
2022-05-11 19:50:00,,0820.0,5.00,0.00,29.7,28.8,00.0,38.4,31.5,11.4,0000.0,0025.51,0005.53,0003.29
2022-05-11 19:51:00,,0820.0,5.01,0.00,29.6,27.2,00.0,38.4,31.2,11.0,0000.0,0026.32,0005.44,0003.26
2022-05-11 19:52:00,,0820.0,5.00,0.00,29.5,25.4,00.0,38.4,30.8,11.0,0000.0,0026.52,0005.38,0003.23
2022-05-11 19:53:00,,0820.0,4.99,0.00,29.4,25.5,00.0,38.3,30.8,11.4,0000.0,0024.53,0005.34,0003.20
2022-05-11 19:54:00,,0819.9,5.01,0.00,29.3,26.0,00.0,38.3,30.9,10.8,0000.0,0023.13,0005.37,0003.17
2022-05-11 19:55:00,,0819.9,5.00,0.00,29.3,26.5,00.0,38.3,30.9,10.8,0000.0,0022.76,0005.43,0003.16
2022-05-11 19:56:00,,0819.9,5.00,0.00,29.3,26.9,00.0,38.2,31.0,10.6,0000.0,0022.40,0005.43,0003.14
2022-05-11 19:57:00,,0819.9,5.01,0.00,29.3,27.4,00.0,38.2,31.1,11.1,0000.0,0021.34,0005.36,0003.13
2022-05-11 19:58:00,,0820.0,5.00,0.00,29.4,27.7,00.0,38.2,31.2,11.2,0000.0,0021.46,0005.26,0003.11
2022-05-11 19:59:00,,0819.9,5.00,0.00,29.4,28.0,00.0,38.2,31.3,10.4,0000.0,0021.64,0005.31,0003.10
